OpenBCM V1.13 (Linux)

Packet Radio Mailbox

DB0FHN

[JN59NK Nuernberg]

 Login: GUEST





  
OZ1LQH > KEP      03.05.14 10:35l 80 Lines 3313 Bytes #999 (0) @ WW
BID : ARLK034
Read: DK3UZ GUEST DL3SEU
Subj: ARLK034 Keplerian data
Path: DB0FHN<OE2XZR<OE3XAR<OE1XAB<HG8LXL<N0KFQ<N9PMO<W4BFB<F1OYP<GB7CIP<
      ON0AR<OZ5BBS
Sent: 140503/0725Z @:OZ5BBS.FYN.DNK.EU #:44286 [Odense] $:ARLK034
From: OZ1LQH@OZ5BBS.FYN.DNK.EU
To  : KEP@WW

ZCZC SK34
QST de W1AW  
Keplerian Bulletin 34  ARLK034
From ARRL Headquarters
Newington, CT  May 2, 2014
To all radio amateurs 

SB KEP ARL ARLK034
ARLK034 Keplerian data

Special thanks to AMSAT-NA (AMSAT.ORG) for the following Keplerian
data.

Decode 2-line elsets with the following key:
1 AAAAAU 00  0  0 BBBBB.BBBBBBBB  .CCCCCCCC  00000-0  00000-0 0  DDDZ
2 AAAAA EEE.EEEE FFF.FFFF GGGGGGG HHH.HHHH III.IIII JJ.JJJJJJJJKKKKKZ
KEY: A-CATALOGNUM B-EPOCHTIME C-DECAY D-ELSETNUM E-INCLINATION F-RAAN
G-ECCENTRICITY H-ARGPERIGEE I-MNANOM J-MNMOTION K-ORBITNUM Z-CHECKSUM

0 AO-07
1 07530U 74089B   14122.16792977 -.00000020  00000-0  14318-3 0  9534
2 07530 101.4684 105.5210 0012139 027.2426 033.4263 12.53604473805755
0 AO-16
1 20439U 90005D   14122.06681836  .00000142  00000-0  68515-4 0   122
2 20439 098.5046 060.2770 0009656 297.9745 124.5807 14.32343152267889
0 AO-27
1 22825U 93061C   14121.92819419  .00000122  00000-0  64668-4 0  6558
2 22825 098.6586 068.2646 0009514 077.0754 325.0230 14.29707928 74177
0 FO-29
1 24278U 96046B   14122.30134441 -.00000034  00000-0 -12531-5 0  3640
2 24278 098.5145 142.4873 0351256 056.8469 006.4597 13.53022536874466
0 ISS
1 25544U 98067A   14122.79217813 -.00005533  00000-0 -89730-4 0  2024
2 25544 051.6475 324.5690 0001791 298.3825 155.7503 15.49795689884283
0 NO-44
1 26931U 01043C   14121.53794821  .00000087  00000-0  65638-4 0  5912
2 26931 067.0503 158.7498 0005904 281.4741 078.5697 14.30101773656939
0 SO-50
1 27607U 02058C   14121.80574979  .00000669  00000-0  12184-3 0  3797
2 27607 064.5579 013.7256 0042050 026.0114 334.3088 14.73704768610642
0 CO-55
1 27844U 03031E   14121.82879808  .00000263  00000-0  14013-3 0  9130
2 27844 098.6987 131.2687 0010521 055.4258 068.9051 14.21482289561990
0 RS-22
1 27939U 03042A   14122.40895616  .00000844  00000-0  16519-3 0  4501
2 27939 097.8067 298.8373 0012279 253.3944 106.5924 14.65142770566023
0 VO-52
1 28650U 05017B   14122.07781652  .00001986  00000-0  23580-3 0  7252
2 28650 097.5603 129.3541 0023642 312.4889 047.4328 14.85341081486382
0 CO-58
1 28895U 05043F   14122.48773636  .00000675  00000-0  14365-3 0  7569
2 28895 097.8392 326.7220 0018381 151.7162 208.5042 14.61822503453575
0 CO-65
1 32785U 08021C   14122.14993848  .00001217  00000-0  14806-3 0  9377
2 32785 097.7036 174.9507 0012863 346.0555 073.9917 14.85168815325193
0 COMPASS 1
1 32787U 08021E   14121.76070639  .00002645  00000-0  29595-3 0  9175
2 32787 097.7055 176.6154 0012836 340.4029 019.6693 14.87675766325285
0 DO-64
1 32789U 08021G   14122.17838198  .00004911  00000-0  47860-3 0  9437
2 32789 097.7239 184.0212 0010714 321.7766 100.7616 14.92892179325633
0 RS-30
1 32953U 08025A   14122.35320666  .00000010  00000-0  00000+0 0  8807
2 32953 082.5034 229.7030 0017973 254.5040 105.4055 12.43046216269563
0 KKS-1
1 33499U 09002H   14121.36448228  .00000952  00000-0  15509-3 0  3460
2 33499 098.1826 248.6916 0010385 062.6743 002.5405 14.73306341282959
0 HINCUBE
1 39445U 13066AF  14121.92632864  .00002548  00000-0  34765-3 0  1304
2 39445 097.7784 194.1512 0062911 034.8652 325.6506 14.78131998 22203

Keplerian bulletins are transmitted twice weekly from W1AW.  The
next scheduled transmission of these data will be Tuesday, May 6,
2014, at 2230z on Baudot and BPSK31.
NNNN



Read previous mail | Read next mail


 14.07.2026 23:51:45lGo back Go up